VA3PPY Weather Reports


time (UTC)temp
F
wind
direction
speed
knots
gust
knots
rain 1hr
in
rain 24hr
in
rain mn
in
humidity
%
barometer
mb
20260503223100 60 169 0.9 5.2 0.00 0.00 0.00 45 1007.0
20260503223001 60 169 0.9 5.2 0.00 0.00 0.00 46 1007.0
20260503221601 60 162 1.7 7.8 0.00 0.00 0.00 46 1007.0
20260503220100 60 235 0.9 5.2 0.00 0.00 0.00 48 1007.2
20260503214604 60 243 1.7 4.3 0.00 0.00 0.00 46 1007.2
20260503213111 59 223 0.9 5.2 0.00 0.00 0.00 48 1007.2
20260503211620 59 219 1.7 4.3 0.00 0.00 0.00 49 1007.3
20260503204600 60 289 1.7 6.1 0.00 0.00 0.00 46 1007.3
20260503203114 60 202 2.6 6.1 0.00 0.00 0.00 46 1007.5
20260503201600 59 216 1.7 6.1 0.00 0.00 0.00 50 1007.7
20260503200101 57 144 0.9 5.2 0.00 0.00 0.00 52 1007.9
20260503194601 55 171 0.9 2.6 0.00 0.00 0.00 57 1008.3
20260503193004 53 263 0.9 3.5 0.00 0.00 0.00 64 1009.0
20260503191502 54 240 0.9 3.5 0.00 0.00 0.00 61 1009.2
20260503190001 55 240 2.6 5.2 0.00 0.00 0.00 59 1009.4
20260503184501 58 223 1.7 5.2 0.00 0.00 0.00 51 1009.3
20260503183000 58 271 1.7 4.3 0.00 0.00 0.00 50 1009.3
20260503181502 55 248 0.9 3.5 0.00 0.00 0.00 57 1009.3
20260503180000 56 248 0.9 5.2 0.00 0.00 0.00 55 1009.6
20260503174502 57 275 1.7 4.3 0.00 0.00 0.00 54 1009.7
20260503173001 58 255 1.7 6.1 0.00 0.00 0.00 53 1009.7
20260503171502 59 251 3.5 6.1 0.00 0.00 0.00 47 1009.8
20260503081504 38 155 0.0 2.6 0.00 0.00 0.00 73 1013.4
20260503071504 37 188 0.9 1.7 0.00 0.00 0.00 70 1013.3
20260503054508 37 156 1.7 6.1 0.00 0.00 0.00 70 1013.9
20260503053007 37 148 1.7 5.2 0.00 0.00 0.00 70 1013.9
20260503051504 37 154 1.7 6.1 0.00 0.00 0.00 70 1014.1
20260503050006 37 148 0.9 5.2 0.00 0.00 0.00 70 1014.3
20260503044505 37 153 0.9 6.1 0.00 0.00 0.00 70 1014.4
20260503043006 37 160 0.9 6.1 0.00 0.00 0.00 71 1014.5
20260503041505 37 162 0.0 5.2 0.00 0.00 0.00 71 1014.6
20260503040004 37 162 0.0 2.6 0.00 0.00 0.00 71 1014.6
20260503034505 37 162 0.9 3.5 0.00 0.00 0.00 71 1014.7
20260503033005 37 162 0.9 5.2 0.00 0.00 0.00 71 1014.8
20260503031505 37 155 0.0 1.7 0.00 0.00 0.00 71 1014.9
20260503030005 37 155 0.0 4.3 0.00 0.00 0.00 70 1014.9
20260503024504 37 155 0.0 4.3 0.00 0.00 0.00 69 1015.0
20260503023017 36 305 0.0 2.6 0.00 0.00 0.00 71 1015.2
20260503021505 35 305 0.0 0.9 0.00 0.00 0.00 72 1015.2
20260503020006 35 305 0.0 0.0 0.00 0.00 0.00 73 1015.2
20260503014507 35 305 0.0 0.0 0.00 0.00 0.00 73 1015.2
20260503013005 36 305 0.0 0.0 0.00 0.00 0.00 72 1015.2
20260503011507 37 305 0.0 0.0 0.00 0.00 0.00 70 1015.2
20260503010005 38 305 0.0 0.0 0.00 0.00 0.00 69 1015.1
20260503004507 39 305 0.0 0.0 0.00 0.00 0.00 63 1015.2
20260503003005 40 305 0.0 0.0 0.00 0.00 0.00 59 1015.2
20260503001506 41 305 0.0 0.0 0.00 0.00 0.00 56 1015.2
20260503000010 42 305 0.0 0.9 0.00 0.00 0.00 50 1015.3
20260502234506 42 305 0.0 2.6 0.00 0.00 0.00 49 1015.2
20260502233005 43 305 0.0 2.6 0.00 0.00 0.00 48 1015.4
20260502231506 43 305 0.9 2.6 0.00 0.00 0.00 49 1015.4
20260502230005 43 305 0.0 2.6 0.00 0.00 0.00 47 1015.4
20260502224506 43 305 1.7 3.5 0.00 0.00 0.00 50 1015.5